GW2728 Weather Reports


time (UTC)temp
F
wind
direction
speed
knots
gust
knots
rain 1hr
in
rain 24hr
in
rain mn
in
humidity
%
barometer
mb
20260506134537 48 272 0.9 4.3 0.01 1.30 0.28 85 1010.9
20260506133037 47 4 0.9 5.2 0.01 1.30 0.28 88 1010.8
20260506131537 46 271 0.9 5.2 0.01 1.30 0.28 90 1010.6
20260506130037 46 306 1.7 4.3 0.00 1.29 0.27 93 1010.1
20260506124536 46 331 0.9 2.6 0.00 1.29 0.27 94 1009.9
20260506123114 45 0 0.0 1.7 0.00 1.29 0.27 95 1009.9
20260506121538 45 336 0.0 2.6 0.00 1.29 0.27 95 1009.8
20260506120042 45 20 0.0 0.9 0.00 1.29 0.27 95 1009.6
20260506114534 44 0 0.0 0.9 0.00 1.29 0.27 95 1009.7
20260506113038 44 0 0.0 0.0 0.00 1.29 0.27 95 1009.3
20260506111538 44 0 0.0 0.0 0.00 1.29 0.27 95 1009.0
20260506110037 44 0 0.0 3.5 0.00 1.29 0.27 95 1008.6
20260506104539 44 0 0.0 2.6 0.00 1.29 0.27 95 1008.4
20260506103047 44 335 1.7 4.3 0.00 1.29 0.27 95 1008.9
20260506101536 44 331 1.7 3.5 0.01 1.29 0.27 95 1008.6
20260506100038 44 343 0.0 0.9 0.02 1.29 0.27 95 1007.7
20260506094539 44 0 0.0 0.9 0.02 1.29 0.27 95 1007.9
20260506093037 44 306 1.7 7.0 0.03 1.29 0.27 95 1008.8
20260506091537 44 328 2.6 6.1 0.03 1.28 0.26 95 1009.0
20260506090044 45 303 2.6 7.0 0.05 1.27 0.25 94 1008.5
20260506084541 45 324 3.5 7.0 0.08 1.27 0.25 95 1008.2
20260506083042 45 299 0.9 4.3 0.09 1.26 0.24 95 1008.1
20260506081540 45 296 0.0 1.7 0.09 1.25 0.23 95 1008.6
20260506073043 45 311 1.7 3.5 0.04 1.16 0.15 95 1008.5
20260506071541 45 347 0.0 3.5 0.02 1.15 0.13 95 1008.2
20260506061548 45 304 0.0 1.7 0.05 1.14 0.11 95 1008.5
20260506044546 46 328 0.0 2.6 0.05 1.05 0.03 94 1009.0
20260506043041 46 337 0.9 2.6 0.05 1.04 0.02 94 1009.1
20260506041536 46 333 0.9 4.3 0.06 1.04 0.01 95 1009.2
20260506040043 47 14 0.9 4.3 0.08 1.03 0.00 95 1009.3
20260506034541 47 354 2.6 5.2 0.10 1.01 1.01 95 1009.6
20260506033041 48 15 1.7 4.3 0.13 1.00 1.00 95 1009.7
20260506031546 48 344 0.9 2.6 0.16 0.98 0.98 95 1009.6
20260506030036 48 354 0.0 3.5 0.18 0.95 0.95 95 1009.7
20260506024549 48 0 0.0 0.9 0.18 0.91 0.91 95 1009.7
20260506023039 48 328 0.9 3.5 0.16 0.86 0.86 95 1009.1
20260506021551 48 299 0.9 2.6 0.13 0.82 0.82 95 1009.2
20260506020037 48 340 0.0 1.7 0.09 0.77 0.77 95 1008.8
20260506014535 48 0 0.0 0.9 0.06 0.73 0.73 95 1008.8
20260506013036 48 0 0.0 0.9 0.06 0.70 0.70 95 1008.9
20260506011539 48 7 0.9 2.6 0.09 0.69 0.69 95 1008.7
20260506010039 48 2 0.0 3.5 0.10 0.68 0.68 95 1008.6
20260506004537 48 105 0.9 4.3 0.09 0.67 0.67 95 1008.3
20260506003037 48 0 0.0 1.7 0.06 0.64 0.64 95 1008.3
20260506001540 49 39 0.0 0.9 0.03 0.60 0.60 95 1008.3
20260506000039 48 338 0.9 3.5 0.03 0.58 0.58 94 1008.3
20260505234535 49 63 0.0 2.6 0.09 0.58 0.58 95 1008.2
20260505233039 48 25 0.0 4.3 0.15 0.58 0.58 95 1008.2
20260505231548 49 327 0.9 4.3 0.15 0.57 0.57 94 1008.8
20260505230037 49 0 0.0 1.7 0.14 0.54 0.54 94 1008.9
20260505224537 49 319 3.5 7.0 0.12 0.48 0.48 94 1009.1
20260505223037 50 22 3.5 7.8 0.12 0.43 0.43 93 1008.6
20260505221537 51 338 0.0 3.5 0.14 0.42 0.42 94 1008.7
20260505220041 51 351 0.9 4.3 0.17 0.40 0.40 94 1008.4
20260505214600 51 31 0.9 5.2 0.21 0.36 0.36 93 1008.3
20260505213038 52 6 1.7 7.0 0.19 0.31 0.31 92 1008.3
20260505211535 56 314 2.6 5.2 0.19 0.28 0.28 90 1008.3
20260505210039 56 0 0.0 4.3 0.18 0.22 0.22 92 1008.0
20260505204537 57 251 0.0 1.7 0.11 0.15 0.15 92 1008.1
20260505203037 57 0 0.0 2.6 0.11 0.12 0.12 91 1008.0
20260505201536 57 285 0.0 2.6 0.07 0.08 0.08 90 1008.0
20260505200043 57 0 0.0 1.7 0.03 0.04 0.04 89 1007.9
20260505194532 58 248 0.0 1.7 0.03 0.04 0.04 87 1008.2
20260505193035 59 310 1.7 6.1 0.00 0.01 0.01 83 1008.3
20260505191543 61 293 1.7 6.1 0.00 0.01 0.01 79 1008.1
20260505190040 63 224 0.9 7.8 0.00 0.01 0.01 73 1008.1
20260505184537 63 247 0.9 4.3 0.00 0.01 0.01 71 1008.1
20260505183050 63 224 0.9 8.7 0.00 0.01 0.01 70 1008.3
20260505181535 64 224 3.5 10.4 0.00 0.01 0.01 69 1008.2
20260505180046 64 223 3.5 7.0 0.00 0.01 0.01 69 1008.1
20260505174545 64 151 1.7 9.6 0.00 0.01 0.01 69 1007.9
20260505173037 64 13 3.5 12.2 0.00 0.01 0.01 67 1008.1
20260505171538 65 261 3.5 11.3 0.00 0.01 0.01 66 1007.8
20260505170036 65 256 5.2 12.2 0.00 0.01 0.01 65 1007.9
20260505164535 65 274 2.6 15.6 0.00 0.01 0.01 64 1007.8
20260505163038 66 248 1.7 8.7 0.00 0.01 0.01 63 1007.7
20260505161537 66 245 4.3 10.4 0.00 0.01 0.01 62 1007.7
20260505153040 67 256 4.3 9.6 0.00 0.01 0.01 60 1006.6
20260505151538 67 208 4.3 14.8 0.00 0.01 0.01 60 1006.3